CAPE
0 1 1 1 0 0 1 1 0 2 0 0 0 0 0 0 0 0 0 0 0 0 0 0 0 0 0 0 0 0 0 0 0 0 0 0 0 0 0 0 0 0 0 0 0
1 1 1 1 1 1 0 0 1 0 1 0 0 0 0 0 0 0 0 0 0 0 0 0 0 0 0 0 0 0 1 2 0 0 0 0 0 0 0 0 0 0 0 0 0
3 2 1 1 1 1 1 0 0 0 0 0 0 0 0 0 0 0 0 0 0 0 0 0 0 0 0 0 0 0 0 0 0 0 0 0 0 0 0 0 0 0 0 0 0
1 3 1 3 2 1 1 1 0 1 0 0 0 0 0 0 0 0 0 0 0 0 0 0 0 0 0 0 0 0 0 0 0 0 0 0 0 0 0 0 0 0 0 0 0
1 2 1 0 0 0 0 1 2 0 0 0 0 0 0 0 0 0 0 0 0 0 0 0 0 0 0 0 0 0 0 0 0 0 0 0 0 0 0 0 0 0 0 0 0
1 0 0 0 0 0 0 0 0 0 0 0 0 0 0 0 0 0 0 0 0 0 0 0 0 0 0 0 0 0 0 0 0 0 0 0 0 0 0 0 0 0 0 0 0
0 0 0 0 0 0 0 0 0 0 0 0 0 0 0 0 0 0 0 0 0 0 0 0 0 0 0 0 0 0 0 0 0 0 0 0 0 0 0 0 0 0 0 0 0
0 0 0 0 0 0 0 0 0 0 0 0 0 0 0 0 0 0 0 0 0 0 0 0 0 0 0 0 0 0 0 0 0 0 0 0 0 0 0 0 0 0 0 0 0
1 0 0 0 0 0 0 0 0 0 0 0 0 0 0 0 0 0 0 0 0 0 0 0 0 0 0 0 0 0 0 0 0 0 0 0 0 0 0 0 0 0 0 0 0
0 0 0 0 0 0 0 0 0 0 0 0 0 0 0 0 0 0 0 0 0 0 0 0 0 0 0 0 0 0 0 0 0 0 0 0 0 0 0 0 0 0 0 0 0
0 0 0 0 0 0 0 0 0 0 0 0 0 0 0 0 0 0 0 0 0 0 0 0 0 0 0 0 0 0 0 0 0 0 0 0 0 0 0 0 0 0 0 0 0
0 0 0 0 0 0 0 0 0 0 0 0 0 0 0 0 0 0 0 0 0 0 0 0 0 0 0 0 0 0 0 0 0 0 0 0 0 0 0 0 0 0 0 0 0
0 0 0 0 0 0 0 0 0 0 0 0 0 0 0 0 0 0 0 0 0 0 0 0 0 0 0 0 0 0 0 0 0 0 0 0 0 0 0 0 0 0 0 0 0
0 0 0 0 0 0 0 0 0 0 0 0 0 0 0 0 0 0 0 0 0 0 0 0 0 0 0 0 0 0 0 0 0 0 0 0 0 0 0 0 0 0 0 0 0
0 0 0 0 0 0 0 0 0 0 0 0 0 0 0 0 0 0 0 0 0 0 0 0 0 0 0 0 0 0 0 0 0 0 0 0 0 0 0 0 0 0 0 0 0
0 0 0 0 0 0 0 0 0 0 0 0 0 0 0 0 0 0 0 0 0 0 0 0 0 0 0 0 0 0 0 0 0 0 0 0 0 0 0 0 0 0 0 0 0
0 0 0 0 0 0 0 0 0 0 0 0 0 0 0 0 0 0 0 0 0 0 0 0 0 0 0 0 0 0 0 0 0 0 0 0 0 0 0 0 0 0 0 0 0
0 0 0 0 0 0 0 0 0 0 0 0 0 0 0 0 0 0 0 0 0 0 0 0 0 0 0 0 0 0 0 0 0 0 0 0 0 0 0 0 0 0 0 0 0
0 0 0 0 0 0 0 0 0 0 0 0 0 0 0 0 0 0 0 0 0 0 0 0 0 0 0 0 0 0 0 0 0 0 0 0 0 0 0 0 0 0 0 0 0
0 0 0 0 0 0 0 0 0 0 0 0 0 0 0 0 0 0 0 0 0 0 0 0 0 0 0 0 0 0 0 0 0 0 0 0 0 0 0 0 0 0 0 0 0
0 0 0 0 0 0 0 0 0 0 0 0 0 0 0 0 0 0 0 0 0 0 0 0 0 0 0 0 0 0 0 0 0 0 0 0 0 0 0 0 0 0 0 0 0
0 0 0 0 0 0 0 0 0 0 0 0 0 0 0 0 0 0 0 0 0 0 0 0 0 0 0 0 0 0 0 0 0 0 0 0 0 0 0 0 0 0 0 0 0
0 0 0 0 0 0 0 0 0 0 0 0 0 0 0 0 0 0 0 0 0 0 0 0 0 0 0 0 0 0 0 0 0 0 0 0 0 0 0 0 0 0 0 0 0
0 0 0 0 0 0 0 0 0 0 0 0 0 0 0 0 0 0 0 0 0 0 0 0 0 0 0 0 0 0 0 0 0 0 0 0 0 0 0 0 0 0 0 0 0
0 0 0 0 0 0 0 0 0 0 0 0 0 0 0 0 0 0 0 0 0 0 0 0 0 0 0 0 0 0 0 0 0 0 0 0 0 0 0 0 0 0 0 0 0
0 0 0 0 0 0 0 0 0 0 0 0 0 0 0 0 0 0 0 0 0 0 0 0 0 0 0 0 0 0 0 0 0 0 0 0 0 0 0 0 0 0 0 0 0
0 0 0 0 0 0 0 0 0 0 0 0 0 0 0 0 0 0 0 0 0 0 0 0 0 0 0 0 0 0 0 0 0 0 0 0 0 0 0 0 0 0 0 0 0
CIN
0 0 0 0 0 0 0 0 0 0 0 0 0 0 0 0 0 0 0 0 0 0 0 0 0 0 0 0 0 0 0 0 0 0 0 0 0 0 0 0 0 0 0 0 0
0 0 0 0 0 0 0 0 0 0 0 0 0 0 0 0 0 0 0 0 0 0 0 0 0 0 0 0 0 0 -44 -16 0 0 0 0 0 0 0 0 0 0 0 0 0
0 0 0 0 0 0 0 0 0 0 0 0 0 0 0 0 0 0 0 0 0 0 0 0 0 0 0 0 0 0 0 0 0 0 0 0 0 0 0 0 0 0 0 0 0
0 0 0 0 0 0 0 0 0 0 0 0 0 0 0 0 0 0 0 0 0 0 0 0 0 0 0 0 0 0 0 0 0 0 0 0 0 0 0 0 0 0 0 0 0
0 0 0 0 0 0 0 0 0 0 0 0 0 0 0 0 0 0 0 0 0 0 0 0 0 0 0 0 0 0 0 0 0 0 0 0 0 0 0 0 0 0 0 0 0
0 0 0 0 0 0 0 0 0 0 0 0 0 0 0 0 0 0 0 0 0 0 0 0 0 0 0 0 0 0 0 0 0 0 0 0 0 0 0 0 0 0 0 0 0
0 0 0 0 0 0 0 0 0 0 0 0 0 0 0 0 0 0 0 0 0 0 0 0 0 0 0 0 0 0 0 0 0 0 0 0 0 0 0 0 0 0 0 0 0
0 0 0 0 0 0 0 0 0 0 0 0 0 0 0 0 0 0 0 0 0 0 0 0 0 0 0 0 0 0 0 0 0 0 0 0 0 0 0 0 0 0 0 0 0
0 0 0 0 0 0 0 0 0 0 0 0 0 0 0 0 0 0 0 0 0 0 0 0 0 0 0 0 0 0 0 0 0 0 0 0 0 0 0 0 0 0 0 0 0
0 0 0 0 0 0 0 0 0 0 0 0 0 0 0 0 0 0 0 0 0 0 0 0 0 0 0 0 0 0 0 0 0 0 0 0 0 0 0 0 0 0 0 0 0
0 0 0 0 0 0 0 0 0 0 0 0 0 0 0 0 0 0 0 0 0 0 0 0 0 0 0 0 0 0 0 0 0 0 0 0 0 0 0 0 0 0 0 0 0
0 0 0 0 0 0 0 0 0 0 0 0 0 0 0 0 0 0 0 0 0 0 0 0 0 0 0 0 0 0 0 0 0 0 0 0 0 0 0 0 0 0 0 0 0
0 0 0 0 0 0 0 0 0 0 0 0 0 0 0 0 0 0 0 0 0 0 0 0 0 0 0 0 0 0 0 0 0 0 0 0 0 0 0 0 0 0 0 0 0
0 0 0 0 0 0 0 0 0 0 0 0 0 0 0 0 0 0 0 0 0 0 0 0 0 0 0 0 0 0 0 0 0 0 0 0 0 0 0 0 0 0 0 0 0
0 0 0 0 0 0 0 0 0 0 0 0 0 0 0 0 0 0 0 0 0 0 0 0 0 0 0 0 0 0 0 0 0 0 0 0 0 0 0 0 0 0 0 0 0
0 0 0 0 0 0 0 0 0 0 0 0 0 0 0 0 0 0 0 0 0 0 0 0 0 0 0 0 0 0 0 0 0 0 0 0 0 0 0 0 0 0 0 0 0
0 0 0 0 0 0 0 0 0 0 0 0 0 0 0 0 0 0 0 0 0 0 0 0 0 0 0 0 0 0 0 0 0 0 0 0 0 0 0 0 0 0 0 0 0
0 0 0 0 0 0 0 0 0 0 0 0 0 0 0 0 0 0 0 0 0 0 0 0 0 0 0 0 0 0 0 0 0 0 0 0 0 0 0 0 0 0 0 0 0
0 0 0 0 0 0 0 0 0 0 0 0 0 0 0 0 0 0 0 0 0 0 0 0 0 0 0 0 0 0 0 0 0 0 0 0 0 0 0 0 0 0 0 0 0
0 0 0 0 0 0 0 0 0 0 0 0 0 0 0 0 0 0 0 0 0 0 0 0 0 0 0 0 0 0 0 0 0 0 0 0 0 0 0 0 0 0 0 0 0
0 0 0 0 0 0 0 0 0 0 0 0 0 0 0 0 0 0 0 0 0 0 0 0 0 0 0 0 0 0 0 0 0 0 0 0 0 0 0 0 0 0 0 0 0
0 0 0 0 0 0 0 0 0 0 0 0 0 0 0 0 0 0 0 0 0 0 0 0 0 0 0 0 0 0 0 0 0 0 0 0 0 0 0 0 0 0 0 0 0
0 0 0 0 0 0 0 0 0 0 0 0 0 0 0 0 0 0 0 0 0 0 0 0 0 0 0 0 0 0 0 0 0 0 0 0 0 0 0 0 0 0 0 0 0
0 0 0 0 0 0 0 0 0 0 0 0 0 0 0 0 0 0 0 0 0 0 0 0 0 0 0 0 0 0 0 0 0 0 0 0 0 0 0 0 0 0 0 0 0
0 0 0 0 0 0 0 0 0 0 0 0 0 0 0 0 0 0 0 0 0 0 0 0 0 0 0 0 0 0 0 0 0 0 0 0 0 0 0 0 0 0 0 0 0
0 0 0 0 0 0 0 0 0 0 0 0 0 0 0 0 0 0 0 0 0 0 0 0 0 0 0 0 0 0 0 0 0 0 0 0 0 0 0 0 0 0 0 0 0
0 0 0 0 0 0 0 0 0 0 0 0 0 0 0 0 0 0 0 0 0 0 0 0 0 0 0 0 0 0 0 0 0 0 0 0 0 0 0 0 0 0 0 0 0
Wind_Speed
18 19 19 20 21 22 23 23 23 22 19 18 18 17 17 16 15 16 17 22 23 27 25 22 17 16 15 15 15 14 19 22 21 20 18 15 17 17 15 15 17 18 17 15 14
18 19 21 20 22 22 23 22 22 21 18 17 16 16 16 16 13 15 19 24 24 24 20 18 16 15 15 15 17 15 19 20 19 18 17 15 19 17 18 20 22 18 16 16 15
19 19 19 21 22 22 22 22 20 19 15 15 15 16 16 16 15 18 24 24 23 22 18 18 17 16 15 16 18 19 20 19 20 20 19 18 17 17 18 23 21 21 14 15 15
19 20 20 20 21 21 20 19 18 16 16 15 16 16 17 15 16 19 24 24 23 19 18 17 16 16 17 18 19 19 20 21 22 21 20 19 16 19 18 20 21 13 12 13 15
19 19 19 20 20 20 19 18 18 17 16 15 14 16 15 15 17 23 24 22 18 16 16 15 15 15 17 17 17 19 18 19 18 19 19 18 21 22 21 18 14 12 16 17 22
18 18 18 18 18 18 18 17 17 16 14 13 13 15 14 16 20 24 24 20 19 17 16 16 14 13 14 17 18 16 15 16 19 19 19 22 23 23 20 15 17 18 18 18 20
18 18 17 17 17 17 17 17 16 15 13 10 12 12 14 15 19 22 20 18 18 16 15 15 13 15 13 15 13 14 18 18 20 20 21 21 24 25 17 13 16 17 18 18 18
17 17 17 17 17 17 17 16 15 13 11 11 12 13 14 16 19 20 20 16 17 15 13 14 13 13 16 11 17 19 20 23 21 21 21 20 28 21 14 14 17 17 18 19 19
18 18 17 18 17 17 16 14 14 13 13 12 12 13 14 16 16 19 17 15 16 14 13 14 14 15 14 15 19 20 25 23 24 22 23 22 28 23 16 17 19 19 19 20 20
19 18 18 18 17 17 14 12 14 13 15 12 13 13 15 15 16 18 16 15 14 13 13 15 16 15 16 17 23 22 22 23 25 24 24 26 29 26 19 18 20 20 20 20 20
19 18 18 17 16 16 13 13 14 16 15 14 14 13 13 16 14 16 16 14 13 14 15 16 16 18 18 19 19 20 22 26 25 25 29 30 33 30 24 21 22 21 21 20 19
19 19 18 16 15 14 14 15 15 12 12 14 13 13 13 15 14 17 18 14 14 14 15 15 17 17 17 18 20 22 25 27 26 26 28 34 40 35 27 25 24 24 23 22 20
19 20 18 14 13 14 13 12 12 13 14 15 15 15 16 15 14 16 16 13 13 14 15 15 15 15 16 18 21 23 26 27 30 30 28 37 39 30 27 25 26 25 25 23 22
19 18 16 11 14 13 13 12 13 14 15 16 16 16 15 12 13 15 15 13 13 12 13 15 15 16 17 20 21 25 22 25 28 30 36 31 46 37 32 31 28 27 24 23 21
18 16 13 12 12 12 12 12 12 13 18 14 14 15 12 10 9 13 14 13 12 12 14 16 16 18 20 20 20 23 20 23 26 29 34 32 37 37 34 36 30 26 22 20 19
17 14 13 13 14 12 11 11 11 14 18 12 12 10 9 11 12 13 13 14 12 14 17 16 17 19 18 18 18 16 21 24 25 28 36 31 32 40 31 31 28 28 24 18 15
15 13 13 14 13 12 11 10 13 17 14 11 11 11 10 11 12 12 12 12 14 16 17 18 19 18 17 19 17 18 23 32 34 31 35 29 33 35 35 31 32 33 29 19 13
12 12 13 13 12 11 11 12 17 16 13 12 10 10 13 13 14 14 14 15 15 16 17 18 22 17 17 18 20 18 21 26 35 35 35 29 34 32 27 30 31 28 26 22 13
12 13 13 15 12 12 12 17 18 15 11 8 12 15 16 16 15 14 15 17 16 12 17 19 21 17 16 14 15 18 22 19 25 28 34 33 31 27 22 27 29 29 25 22 16
13 14 14 16 12 13 16 22 19 15 13 14 18 18 16 15 15 14 16 16 16 14 16 16 22 18 17 14 16 15 13 23 22 32 36 35 35 29 26 25 29 28 25 23 18
15 15 14 14 12 15 21 22 20 18 17 18 21 20 20 19 17 17 18 17 15 13 15 15 19 20 18 17 16 16 18 18 19 22 33 39 30 16 24 25 25 26 26 25 20
16 18 15 12 15 19 21 20 19 18 18 20 19 20 20 17 18 19 19 18 12 12 16 14 19 22 19 16 15 17 17 14 22 25 22 27 30 21 23 22 20 24 27 27 24
18 19 17 16 18 20 21 21 20 18 20 20 20 20 18 17 21 18 17 16 12 13 15 12 20 26 24 22 18 18 16 16 17 20 23 27 25 20 19 23 25 28 31 30 29
18 20 19 20 21 20 20 22 22 19 19 18 18 17 17 19 19 18 17 16 13 15 15 13 18 20 27 25 21 21 18 15 15 23 25 24 28 20 26 29 31 29 33 38 32
22 23 18 20 23 21 19 19 20 22 21 19 22 20 18 20 20 20 18 17 16 16 16 16 23 20 19 21 22 24 23 19 19 20 25 25 25 29 28 29 30 37 33 32 30
23 22 21 21 20 18 21 23 20 19 17 22 22 18 16 19 19 19 16 18 19 15 15 18 24 22 27 21 24 29 24 21 21 23 25 26 26 33 31 25 26 31 31 29 28
24 22 23 23 23 22 24 22 21 17 20 21 17 18 17 19 18 18 17 17 16 15 14 17 20 23 29 26 28 28 27 22 23 20 20 23 19 28 26 27 30 30 27 26 26
Wind_Direction
317 316 310 305 302 296 291 286 284 287 294 299 300 304 311 317 321 319 316 305 302 293 295 301 316 315 319 316 319 318 294 290 293 292 292 301 295 296 297 295 293 295 298 307 313
316 311 305 306 301 296 293 290 285 285 298 300 302 303 306 312 330 324 313 296 293 295 308 315 315 315 311 311 309 305 295 297 306 302 299 300 296 290 283 284 289 293 298 305 309
312 313 313 306 303 301 298 296 294 293 307 309 303 298 299 300 314 311 302 292 288 291 307 310 308 310 312 309 305 300 296 304 304 303 297 294 297 297 289 282 281 287 286 297 300
316 313 312 310 307 308 308 306 300 309 306 306 291 289 290 303 305 309 295 292 294 312 310 311 309 308 306 303 305 301 305 302 299 303 301 295 295 291 293 294 291 298 297 297 301
316 317 313 311 312 309 311 311 304 308 305 299 296 294 298 303 302 303 301 311 321 323 323 320 314 313 306 310 310 305 307 309 310 307 305 304 296 292 289 295 304 303 297 293 287
317 314 319 317 316 317 315 316 319 320 314 301 301 300 305 297 305 304 305 317 320 324 326 324 325 328 324 316 311 320 321 317 314 311 309 300 295 295 296 297 294 293 292 297 296
316 315 317 316 315 317 315 318 318 322 321 322 317 314 310 306 311 308 313 318 315 317 322 326 328 321 327 321 331 326 313 315 315 313 308 307 297 294 301 296 294 293 295 297 301
314 309 307 306 309 310 312 317 325 329 332 330 322 315 312 309 309 311 307 318 319 323 328 325 333 333 319 340 322 314 313 304 312 311 312 309 298 306 304 296 293 293 295 296 300
306 300 301 301 306 312 317 327 331 337 333 331 323 319 315 316 317 314 321 319 317 331 336 334 329 325 325 321 313 313 304 307 310 315 310 305 302 309 307 297 294 292 292 295 297
299 299 300 305 311 315 327 340 337 337 329 345 332 321 318 317 318 315 321 324 330 331 333 326 324 322 320 316 307 310 310 311 309 315 312 306 302 307 306 298 294 292 291 291 292
300 305 305 310 318 321 328 324 316 313 327 315 317 319 323 312 323 319 318 325 330 328 321 320 320 316 319 321 322 320 315 311 312 316 310 305 303 305 303 297 294 290 288 287 288
305 307 310 316 324 329 323 313 314 324 323 324 321 319 316 309 314 314 313 322 322 324 325 325 319 326 328 327 323 320 316 313 316 318 314 308 302 304 299 293 289 287 285 283 283
305 306 313 323 331 324 320 324 316 310 314 309 304 303 305 312 314 311 318 332 331 330 329 327 337 342 338 333 327 324 319 318 314 318 319 312 306 312 314 303 299 289 285 280 276
312 316 321 337 321 319 312 307 301 305 305 302 296 303 308 316 314 309 314 331 333 338 345 342 345 342 337 330 331 322 333 327 324 320 312 323 302 309 314 311 305 298 288 281 274
316 325 332 327 327 308 303 295 300 304 294 304 299 298 308 312 323 316 318 336 341 348 343 338 341 339 335 335 341 332 342 333 329 322 319 321 312 313 317 312 314 311 302 284 272
323 328 330 324 310 299 287 290 300 296 290 303 300 300 306 306 310 310 326 338 350 346 345 344 350 345 345 352 350 359 342 337 333 326 314 323 320 315 321 322 322 324 318 302 275
331 336 327 313 299 280 280 290 292 285 299 294 295 293 298 306 313 320 329 333 330 331 329 336 336 349 353 344 356 348 336 324 321 320 316 327 320 316 318 325 320 317 317 315 289
327 330 326 308 293 276 276 285 283 292 287 297 294 293 296 305 310 317 322 319 322 328 330 330 328 343 356 347 343 344 336 327 318 318 320 328 318 324 335 332 326 324 324 320 306
322 315 310 302 290 276 277 276 285 287 293 285 287 287 292 298 311 317 313 315 321 328 323 328 329 348 355 2 357 349 334 346 327 326 320 320 323 329 345 341 338 332 328 325 324
301 302 301 293 289 278 275 277 285 292 295 284 283 286 290 296 304 312 310 318 318 325 330 331 326 340 344 358 354 347 1 336 334 321 319 321 320 321 331 339 336 335 335 333 334
287 292 296 293 290 279 272 278 286 286 289 284 283 286 290 294 299 305 310 315 317 324 325 334 329 333 340 333 332 336 333 335 335 329 321 320 325 342 332 333 334 335 333 335 338
282 282 289 284 279 281 277 283 287 285 286 289 293 292 289 292 299 301 303 309 319 324 318 326 332 324 332 345 344 331 328 323 321 324 322 324 316 328 327 331 338 334 331 331 331
274 277 284 275 278 277 283 283 286 286 283 288 288 292 296 294 298 300 304 312 314 316 323 324 319 321 327 331 330 323 319 319 324 327 316 317 323 339 336 327 325 323 323 324 324
271 273 278 273 282 282 281 281 280 289 289 290 294 296 296 294 297 301 303 312 312 313 321 324 320 316 314 322 330 323 320 311 310 315 315 301 308 311 315 315 317 319 319 316 317
267 270 274 276 274 277 281 286 282 283 286 287 288 285 289 293 293 294 301 307 310 311 313 311 309 315 315 315 315 314 313 306 295 296 303 304 297 313 316 317 317 315 318 319 318
263 268 273 278 282 275 276 278 281 286 285 283 283 285 282 289 293 299 295 297 302 303 305 308 309 315 311 313 310 307 304 301 293 299 292 296 290 309 312 320 323 320 320 322 322
264 273 275 275 275 275 277 277 279 282 284 289 282 286 282 286 301 310 311 311 310 305 297 306 308 313 309 316 314 304 302 290 300 301 296 298 299 316 318 321 320 321 324 324 324